Location: Summit Observatory
(39.5293°N, 75.7290°W)
Time: 19:30:22
(UTC-05:00)

Amateur Radio Satellites - All Passes

Search period start: 20 December 2014 19:00
Search period end: 21 December 2014 19:00
Location: Summit Observatory, 39.5293°N, 75.7290°W

Satellite Date Start Highest point End Downlink Frequencies (MHz)
Time Altitude Azimuth
STRAND 1 20 Dec 19:08:58 19:14:05 85° 284° (WNW) 19:19:11 437.568
HO-68 20 Dec 19:20:10 19:26:51 44° 66° (ENE) 19:33:32 435.675
GOMX 1 20 Dec 19:21:09 19:23:45 16° 66° (ENE) 19:26:21 467.674
DANDE 20 Dec 19:29:49 19:36:38 33° 72° (ENE) 19:44:08 436.750
Oscar 11 20 Dec 19:36:38 19:37:35 11° 62° (ENE) 19:38:33 145.826/435.025
RS-15 20 Dec 19:41:15 19:51:58 47° 46° (NE) 20:03:05 29.354- 29.394
UKube-1 20 Dec 19:45:31 19:46:11 10° 61° (ENE) 19:46:51 .
DOVE 4 20 Dec 19:45:47 19:48:59 22° 68° (ENE) 19:52:14 437.250
AAUSAT CUBESAT 2 20 Dec 19:48:38 19:52:13 28° 70° (ENE) 19:55:49 437.432
CUBEBUG 2 20 Dec 19:56:46 19:57:31 10° 62° (ENE) 19:58:17 437.445
CANX-2 20 Dec 20:01:32 20:05:46 69° 75° (ENE) 20:10:03 2200.000
CINEMA 3 20 Dec 20:10:44 20:14:07 25° 69° (ENE) 20:17:34 145.822/145.860
CUSAT 1 20 Dec 20:20:38 20:28:28 77° 80° (E) 20:37:01 437.405
ISS 20 Dec 20:22:35 20:25:51 68° 220° (SW) 20:29:05 145.825
COMPASS 1 20 Dec 20:23:15 20:27:28 81° 76° (ENE) 20:31:43 437.405
SEEDS 20 Dec 20:28:52 20:33:05 73° 259° (WSW) 20:37:22 437.485
BRITE-PL 20 Dec 20:31:10 20:35:16 53° 260° (W) 20:39:20 437.365/2234.400
FUNcube-1 20 Dec 20:31:35 20:34:30 19° 66° (ENE) 20:37:27 145.935
UWE-3 20 Dec 20:32:03 20:35:18 22° 68° (ENE) 20:38:38 435.000/436.395/437.385
CUTE 1.7 + AOD 2 20 Dec 20:32:26 20:36:37 57° 260° (W) 20:40:52 437.475
DELFI C3 20 Dec 20:39:48 20:43:41 42° 73° (ENE) 20:47:36 145.870
50 SAT 20 Dec 20:44:14 20:45:30 11° 64° (ENE) 20:46:46 437.505
DX 1 20 Dec 20:46:32 20:50:44 50° 73° (ENE) 20:54:57 434.975-435.025
AISAT 20 Dec 20:49:53 20:52:56 19° 66° (ENE) 20:56:00 437.250
BEESAT 3 20 Dec 20:49:58 20:52:26 15° 44° (NE) 20:54:52 437.485
STRAND 1 20 Dec 20:51:41 20:52:27 10° 301° (WNW) 20:53:12 437.568
SO-50 20 Dec 20:53:23 20:57:52 75° 120° (ESE) 21:02:32 436.795
GOMX 1 20 Dec 20:57:44 21:01:35 37° 262° (W) 21:05:29 467.674
HUMSAT D 20 Dec 21:04:31 21:07:53 25° 69° (ENE) 21:11:18 437.325/437.525
HO-68 20 Dec 21:08:10 21:14:35 35° 263° (W) 21:21:03 435.675
Oscar 11 20 Dec 21:08:49 21:13:08 71° 258° (WSW) 21:17:30 145.826/435.025
DANDE 20 Dec 21:12:43 21:20:19 58° 266° (W) 21:28:47 436.750
UKube-1 20 Dec 21:17:24 21:21:43 74° 257° (WSW) 21:26:04 .
DOVE 4 20 Dec 21:23:08 21:26:39 27° 264° (W) 21:30:13 437.250
AAUSAT CUBESAT 2 20 Dec 21:24:30 21:27:50 23° 265° (W) 21:31:13 437.432
BEESAT 2 20 Dec 21:29:03 21:32:46 29° 51° (NE) 21:36:25 435.950
CUBEBUG 2 20 Dec 21:29:28 21:33:36 68° 259° (W) 21:37:52 437.445
TIGRISAT 20 Dec 21:37:27 21:40:08 15° 92° (E) 21:42:49 435.000
ZACube-1 20 Dec 21:39:36 21:43:45 72° 258° (WSW) 21:48:01 437.345
VELOX 1 20 Dec 21:41:31 21:45:54 66° 74° (ENE) 21:50:17 145.980
ESTCUBE 1 20 Dec 21:44:59 21:48:51 28° 69° (ENE) 21:52:44 437.505/2401.250
CINEMA 3 20 Dec 21:47:50 21:51:16 25° 265° (W) 21:54:46 145.822/145.860
RS-15 20 Dec 21:53:43 22:04:36 56° 248° (WSW) 22:15:59 29.354- 29.394
YUBILEINY 20 Dec 22:02:11 22:06:29 15° 76° (ENE) 22:10:46 435.215
BUGSAT 1 20 Dec 22:04:27 22:06:08 12° 92° (E) 22:07:50 437.445
DUCHIFAT 1 20 Dec 22:05:03 22:07:51 17° 93° (E) 22:10:39 145.980
CUSAT 1 20 Dec 22:05:05 22:10:57 23° 275° (W) 22:17:09 437.405
UNISAT 6 20 Dec 22:05:29 22:09:38 30° 96° (E) 22:13:47 437.425
FUNcube-1 20 Dec 22:06:46 22:10:34 35° 263° (W) 22:14:29 145.935
UWE-3 20 Dec 22:08:06 22:11:42 28° 264° (W) 22:15:24 435.000/436.395/437.385
50 SAT 20 Dec 22:16:15 22:20:12 57° 260° (W) 22:24:11 437.505
DELFI C3 20 Dec 22:16:55 22:19:09 14° 268° (W) 22:21:23 145.870
QB50P2 20 Dec 22:18:07 22:21:38 25° 96° (E) 22:25:09 145.880/145.840
PCSat 20 Dec 22:19:06 22:24:13 40° 55° (NE) 22:29:17 145.827
DX 1 20 Dec 22:25:06 22:27:15 13° 268° (W) 22:29:24 434.975-435.025
AISAT 20 Dec 22:25:08 22:29:16 39° 261° (W) 22:33:25 437.250
POLYITAN 1 20 Dec 22:26:46 22:30:35 31° 97° (E) 22:34:24 437.675
BEESAT 3 20 Dec 22:26:53 22:31:01 63° 242° (WSW) 22:35:05 437.485
NANOSAT C BR1 20 Dec 22:28:52 22:32:41 32° 97° (E) 22:36:31 145.865
CUBEBUG 1 20 Dec 22:30:15 22:34:38 83° 77° (ENE) 22:39:00 437.445
AIST 2 20 Dec 22:34:20 22:38:37 63° 56° (ENE) 22:42:48 435.215
SO-50 20 Dec 22:36:12 22:39:00 16° 319° (NW) 22:41:51 436.795
ANTELSAT 20 Dec 22:37:02 22:41:44 66° 101° (ESE) 22:46:26 437.575/2403.000
HUMSAT D 20 Dec 22:40:12 22:43:36 25° 265° (W) 22:47:03 437.325/437.525
QB50P1 20 Dec 22:43:05 22:47:12 47° 99° (E) 22:51:19 145.935-145.965
BEESAT 2 20 Dec 23:07:25 23:10:54 26° 247° (WSW) 23:14:20 435.950
POPSAT HIP 1 20 Dec 23:11:42 23:15:59 80° 284° (WNW) 23:20:15 437.405
TIGRISAT 20 Dec 23:12:34 23:17:09 53° 287° (WNW) 23:21:44 435.000
BEESAT 20 Dec 23:16:36 23:17:48 11° 60° (ENE) 23:19:00 436.000
ESTCUBE 1 20 Dec 23:21:52 23:25:40 26° 264° (W) 23:29:29 437.505/2401.250
VELOX 1 20 Dec 23:22:04 23:22:54 10° 270° (W) 23:23:43 145.980
TISAT 1 20 Dec 23:33:48 23:38:00 78° 258° (WSW) 23:42:13 437.305
SPROUT 20 Dec 23:37:39 23:41:55 78° 258° (WSW) 23:46:13 437.525
BUGSAT 1 20 Dec 23:37:59 23:41:53 47° 287° (WNW) 23:45:48 437.445
DUCHIFAT 1 20 Dec 23:39:54 23:43:50 38° 288° (WNW) 23:47:46 145.980
UNISAT 6 20 Dec 23:42:21 23:46:17 27° 292° (WNW) 23:50:14 437.425
O/OREOS (USA 219) 20 Dec 23:47:56 23:51:37 26° 103° (ESE) 23:55:20 437.305
YUBILEINY 20 Dec 23:53:05 00:01:50 83° 95° (E) 00:10:35 435.215
QB50P2 20 Dec 23:53:54 23:57:29 27° 291° (WNW) 00:01:04 145.880/145.840
AUBIESAT-1 21 Dec 00:00:36 00:04:07 20° 60° (ENE) 00:07:40 437.475
PCSat 21 Dec 00:02:53 00:07:25 28° 252° (WSW) 00:11:54 145.827
POLYITAN 1 21 Dec 00:03:03 00:06:20 22° 292° (WNW) 00:09:38 437.675
NANOSAT C BR1 21 Dec 00:05:10 00:08:21 21° 293° (WNW) 00:11:33 145.865
AIST 2 21 Dec 00:15:07 00:16:39 12° 253° (WSW) 00:18:11 435.215
ANTELSAT 21 Dec 00:15:42 00:17:57 14° 297° (WNW) 00:20:13 437.575/2403.000
QB50P1 21 Dec 00:20:17 00:22:41 15° 295° (WNW) 00:25:06 145.935-145.965
M-CUBED/EXP-1 PRIME 21 Dec 00:25:16 00:29:42 37° 65° (ENE) 00:34:13 437.505
SWISSCUBE 21 Dec 00:25:16 00:29:58 59° 73° (ENE) 00:34:41 437.505
ITUPSAT 1 21 Dec 00:25:52 00:30:32 54° 73° (ENE) 00:35:13 437.325
BEESAT 21 Dec 00:50:07 00:54:55 84° 257° (WSW) 00:59:44 436.000
O/OREOS (USA 219) 21 Dec 01:27:05 01:30:55 28° 299° (WNW) 01:34:46 437.305
AUBIESAT-1 21 Dec 01:34:00 01:38:39 50° 256° (WSW) 01:43:25 437.475
VERMONT LUNAR 21 Dec 01:34:03 01:35:40 13° 145° (SE) 01:37:17 437.305
Oscar 19 21 Dec 01:42:02 01:47:16 86° 104° (ESE) 01:52:28 437.125/150
STARS 21 Dec 01:45:33 01:49:46 49° 73° (ENE) 01:54:00 437.465
KKS-1 21 Dec 01:49:39 01:54:04 85° 76° (ENE) 01:58:31 437.445
PHONESAT 2.4 21 Dec 01:49:53 01:50:56 11° 144° (SE) 01:51:58 2401.200-2431.200
YUBILEINY 21 Dec 01:53:40 01:59:42 20° 296° (WNW) 02:05:45 435.215
Gurwin Techsat 1B 21 Dec 01:55:43 02:00:07 26° 95° (E) 02:04:30 435.225
ITAMSAT 1 21 Dec 01:58:33 02:03:30 44° 99° (E) 02:08:25 435.822/435.867
M-CUBED/EXP-1 PRIME 21 Dec 02:00:45 02:04:42 25° 261° (W) 02:08:45 437.505
SWISSCUBE 21 Dec 02:05:43 02:08:11 14° 269° (W) 02:10:38 437.505
ITUPSAT 1 21 Dec 02:05:57 02:08:44 15° 268° (W) 02:11:31 437.325
AIST 1 21 Dec 02:37:24 02:40:30 19° 73° (ENE) 02:43:35
MOZHAYETS 4 21 Dec 03:03:03 03:05:55 16° 65° (ENE) 03:08:48
VERMONT LUNAR 21 Dec 03:10:03 03:13:29 51° 159° (SSE) 03:16:56 437.305
HORYU 2 21 Dec 03:12:55 03:17:23 57° 101° (E) 03:21:49 437.375
Oscar 19 21 Dec 03:23:55 03:25:50 12° 300° (WNW) 03:27:45 437.125/150
STARS 21 Dec 03:24:16 03:26:31 14° 268° (W) 03:28:46 437.465
PHONESAT 2.4 21 Dec 03:25:34 03:29:03 46° 158° (SSE) 03:32:33 2401.200-2431.200
Gurwin Techsat 1B 21 Dec 03:35:17 03:40:08 37° 291° (WNW) 03:44:58 435.225
ITAMSAT 1 21 Dec 03:38:46 03:42:40 22° 295° (WNW) 03:46:34 435.822/435.867
AO-7 21 Dec 03:50:47 03:58:49 48° 101° (E) 04:06:45 29.400- 29.500
GONETS M04 21 Dec 03:55:38 04:01:12 19° 78° (ENE) 04:06:45
AIST 1 21 Dec 04:14:26 04:18:12 31° 269° (W) 04:21:57
JAS-2 21 Dec 04:32:00 04:36:58 33° 95° (E) 04:41:37 435.910
MOZHAYETS 4 21 Dec 04:38:12 04:42:43 50° 261° (W) 04:47:16
STRAND 1 21 Dec 04:47:33 04:50:28 16° 62° (ENE) 04:53:23 437.568
VERMONT LUNAR 21 Dec 04:48:15 04:51:47 75° 356° (N) 04:55:19 437.305
HORYU 2 21 Dec 04:51:12 04:53:33 14° 297° (WNW) 04:55:54 437.375
Cubesat XI-IV 21 Dec 04:59:42 05:01:10 11° 89° (E) 05:02:38 437.490
PHONESAT 2.4 21 Dec 05:04:03 05:07:41 78° 354° (N) 05:11:19 2401.200-2431.200
PRISM 21 Dec 05:13:02 05:17:11 58° 74° (ENE) 05:21:21 437.425
SO-50 21 Dec 05:25:42 05:30:30 53° 54° (NE) 05:35:18 436.795
CUTE-I 21 Dec 05:30:31 05:34:43 23° 94° (E) 05:38:54 437.470
AO-7 21 Dec 05:43:51 05:51:23 39° 299° (WNW) 05:58:54 29.400- 29.500
GONETS M04 21 Dec 05:47:57 05:56:49 84° 277° (W) 06:05:42
CUBESAT XI-V 21 Dec 06:02:20 06:07:01 89° 77° (ENE) 06:11:42 437.345
JAS-2 21 Dec 06:17:14 06:21:59 29° 295° (WNW) 06:26:26 435.910
STRAND 1 21 Dec 06:24:01 06:29:05 65° 258° (WSW) 06:34:10 437.568
VERMONT LUNAR 21 Dec 06:26:38 06:30:10 83° 193° (SSW) 06:33:42 437.305
Cubesat XI-IV 21 Dec 06:36:31 06:41:51 83° 285° (WNW) 06:47:10 437.490
PHONESAT 2.4 21 Dec 06:42:49 06:46:28 88° 191° (S) 06:50:06 2401.200-2431.200
PRISM 21 Dec 06:51:51 06:53:03 11° 269° (W) 06:54:14 437.425
SO-50 21 Dec 07:07:19 07:10:39 19° 251° (WSW) 07:13:59 436.795
CUTE-I 21 Dec 07:09:56 07:14:54 42° 290° (WNW) 07:19:52 437.470
GONETS M04 21 Dec 07:49:44 07:55:01 17° 298° (WNW) 08:00:21
CANX-2 21 Dec 07:49:54 07:51:57 13° 91° (E) 07:53:59 2200.000
VERMONT LUNAR 21 Dec 08:05:16 08:08:14 25° 209° (SSW) 08:11:12 437.305
COMPASS 1 21 Dec 08:09:47 08:12:06 14° 92° (E) 08:14:24 437.405
SEEDS 21 Dec 08:15:26 08:18:37 20° 94° (E) 08:21:47 437.485
CUTE 1.7 + AOD 2 21 Dec 08:19:19 08:22:57 26° 95° (E) 08:26:33 437.475
Cubesat XI-IV 21 Dec 08:19:55 08:21:05 11° 302° (WNW) 08:22:15 437.490
PHONESAT 2.4 21 Dec 08:21:45 08:24:57 30° 207° (SSW) 08:28:09 2401.200-2431.200
BRITE-PL 21 Dec 08:35:30 08:40:07 48° 100° (E) 08:45:05 437.365/2234.400
HO-68 21 Dec 08:35:55 08:42:49 48° 100° (E) 08:49:38 435.675
TIGRISAT 21 Dec 08:37:08 08:38:42 12° 62° (ENE) 08:40:17 435.000
DANDE 21 Dec 08:45:52 08:48:22 18° 83° (E) 08:51:20 436.750
MaSat-1 21 Dec 08:51:59 08:54:06 31° 298° (WNW) 08:56:09 437.345
Oscar 11 21 Dec 08:57:55 09:01:20 22° 94° (E) 09:04:43 145.826/435.025
DUCHIFAT 1 21 Dec 08:58:34 09:00:17 12° 64° (ENE) 09:02:00 145.980
GOMX 1 21 Dec 08:58:58 09:03:44 61° 101° (E) 09:08:49 467.674
UNISAT 6 21 Dec 09:04:25 09:07:54 24° 67° (ENE) 09:11:27 437.425
UKube-1 21 Dec 09:07:06 09:10:14 19° 94° (E) 09:13:22 .
AAUSAT CUBESAT 2 21 Dec 09:08:01 09:12:13 59° 100° (E) 09:16:23 437.432
QB50P2 21 Dec 09:11:21 09:14:11 18° 66° (ENE) 09:17:00 145.880/145.840
POLYITAN 1 21 Dec 09:19:58 09:23:11 22° 68° (ENE) 09:26:26 437.675
DOVE 4 21 Dec 09:21:27 09:26:16 77° 102° (ESE) 09:31:22 437.250
NANOSAT C BR1 21 Dec 09:21:33 09:24:49 22° 68° (ENE) 09:28:05 145.865
CUBEBUG 2 21 Dec 09:21:41 09:25:42 28° 96° (E) 09:29:45 437.445
CANX-2 21 Dec 09:23:58 09:28:10 51° 286° (WNW) 09:32:20 2200.000
ZACube-1 21 Dec 09:29:43 09:33:25 24° 95° (E) 09:37:08 437.345
CUSAT 1 21 Dec 09:32:22 09:35:56 90° 283° (WNW) 09:40:48 437.405
VELOX 1 21 Dec 09:35:05 09:37:15 13° 92° (E) 09:39:24 145.980
ANTELSAT 21 Dec 09:35:30 09:39:44 51° 73° (ENE) 09:44:05 437.575/2403.000
QB50P1 21 Dec 09:35:32 09:39:16 32° 70° (ENE) 09:43:00 145.935-145.965
CINEMA 3 21 Dec 09:42:08 09:46:55 76° 102° (ESE) 09:51:52 145.822/145.860
COMPASS 1 21 Dec 09:43:58 09:48:03 45° 287° (WNW) 09:52:05 437.405
SEEDS 21 Dec 09:50:39 09:54:29 33° 289° (WNW) 09:58:18 437.485
CUTE 1.7 + AOD 2 21 Dec 09:55:12 09:58:47 26° 291° (WNW) 10:02:20 437.475
FUNcube-1 21 Dec 09:55:45 10:00:07 45° 99° (E) 10:04:31 145.935
DELFI C3 21 Dec 09:56:18 10:00:27 88° 103° (ESE) 10:04:33 145.870
O/OREOS (USA 219) 21 Dec 09:57:57 10:02:16 44° 64° (ENE) 10:06:36 437.305
UWE-3 21 Dec 09:58:05 10:02:38 58° 100° (E) 10:07:15 435.000/436.395/437.385
50 SAT 21 Dec 09:58:08 10:01:17 21° 94° (E) 10:04:26 437.505
POPSAT HIP 1 21 Dec 10:03:48 10:07:58 68° 75° (ENE) 10:12:10 437.405
YUBILEINY 21 Dec 10:04:45 10:12:46 39° 73° (ENE) 10:20:44 435.215
RS-15 21 Dec 10:06:27 10:14:56 27° 103° (ESE) 10:23:20 29.354- 29.394
TIGRISAT 21 Dec 10:10:32 10:14:50 66° 259° (W) 10:19:16 435.000
DX 1 21 Dec 10:11:53 10:16:14 74° 285° (WNW) 10:20:33 434.975-435.025
BRITE-PL 21 Dec 10:15:06 10:18:20 19° 293° (WNW) 10:21:44 437.365/2234.400
AISAT 21 Dec 10:17:00 10:21:12 40° 99° (E) 10:25:23 437.250
CUBEBUG 1 21 Dec 10:21:35 10:24:18 16° 93° (E) 10:27:01 437.445
HO-68 21 Dec 10:24:05 10:30:14 32° 298° (WNW) 10:36:22 435.675
HUMSAT D 21 Dec 10:24:46 10:29:02 55° 100° (E) 10:33:18 437.325/437.525
BUGSAT 1 21 Dec 10:27:10 10:31:15 80° 257° (WSW) 10:35:20 437.445
DANDE 21 Dec 10:28:29 10:31:30 25° 292° (WNW) 10:35:18 436.750
DUCHIFAT 1 21 Dec 10:31:32 10:35:39 57° 259° (W) 10:39:48 145.980
Oscar 11 21 Dec 10:33:40 10:37:31 31° 290° (WNW) 10:41:20 145.826/435.025
GOMX 1 21 Dec 10:38:41 10:41:26 15° 295° (WNW) 10:44:17 467.674
UNISAT 6 21 Dec 10:40:42 10:44:32 30° 264° (W) 10:48:28 437.425
UKube-1 21 Dec 10:42:32 10:46:28 35° 290° (WNW) 10:50:23 .
AAUSAT CUBESAT 2 21 Dec 10:45:44 10:47:21 12° 296° (WNW) 10:48:58 437.432
QB50P2 21 Dec 10:45:53 10:49:48 37° 262° (W) 10:53:45 145.880/145.840
POLYITAN 1 21 Dec 10:55:16 10:58:57 29° 263° (W) 11:02:40 437.675
NANOSAT C BR1 21 Dec 10:56:53 11:00:32 29° 263° (W) 11:04:13 145.865
CUBEBUG 2 21 Dec 10:58:20 11:02:18 29° 290° (WNW) 11:06:21 437.445
DOVE 4 21 Dec 11:01:33 11:03:29 12° 297° (WNW) 11:05:26 437.250
ZACube-1 21 Dec 11:05:46 11:09:46 31° 290° (WNW) 11:13:49 437.345
VELOX 1 21 Dec 11:09:49 11:14:07 52° 287° (WNW) 11:18:24 145.980
QB50P1 21 Dec 11:12:05 11:15:11 20° 266° (W) 11:18:19 145.935-145.965
ANTELSAT 21 Dec 11:14:39 11:16:51 14° 269° (W) 11:19:05 437.575/2403.000
ESTCUBE 1 21 Dec 11:14:48 11:19:18 70° 102° (ESE) 11:23:45 437.505/2401.250
TISAT 1 21 Dec 11:20:49 11:23:41 18° 94° (E) 11:26:32 437.305
CINEMA 3 21 Dec 11:21:39 11:23:32 12° 297° (WNW) 11:25:27 145.822/145.860
Oscar 19 21 Dec 11:21:50 11:24:27 14° 61° (ENE) 11:27:03 437.125/150
SPROUT 21 Dec 11:26:19 11:29:27 19° 94° (E) 11:32:34 437.525
50 SAT 21 Dec 11:32:53 11:36:31 30° 290° (WNW) 11:40:08 437.505
FUNcube-1 21 Dec 11:33:07 11:36:06 18° 294° (WNW) 11:39:07 145.935
UWE-3 21 Dec 11:36:13 11:38:41 15° 296° (WNW) 11:41:11 435.000/436.395/437.385
O/OREOS (USA 219) 21 Dec 11:38:27 11:41:17 17° 260° (W) 11:44:07 437.305
AISAT 21 Dec 11:54:28 11:57:30 18° 294° (WNW) 12:00:33 437.250
CUBEBUG 1 21 Dec 11:56:46 12:00:51 41° 288° (WNW) 12:04:55 437.445
YUBILEINY 21 Dec 12:01:32 12:09:34 44° 272° (W) 12:17:36 435.215
HUMSAT D 21 Dec 12:02:14 12:04:22 14° 296° (WNW) 12:06:30 437.325/437.525
RS-15 21 Dec 12:15:07 12:26:04 77° 303° (WNW) 12:37:06 29.354- 29.394
BEESAT 3 21 Dec 12:20:56 12:24:30 30° 114° (ESE) 12:28:08 437.485
SWISSCUBE 21 Dec 12:28:03 12:30:59 16° 92° (E) 12:33:54 437.505
ITUPSAT 1 21 Dec 12:29:05 12:31:45 15° 92° (E) 12:34:24 437.325
AIST 2 21 Dec 12:33:19 12:36:03 17° 110° (ESE) 12:38:49 435.215
BEESAT 21 Dec 12:52:02 12:56:03 27° 96° (E) 13:00:02 436.000
ESTCUBE 1 21 Dec 12:54:03 12:55:34 12° 298° (WNW) 12:57:04 437.505/2401.250
TISAT 1 21 Dec 12:55:44 12:59:36 36° 289° (WNW) 13:03:29 437.305
Oscar 19 21 Dec 12:58:00 13:03:08 73° 258° (WSW) 13:08:18 437.125/150
PCSat 21 Dec 12:59:51 13:04:56 43° 111° (ESE) 13:10:02 145.827
BEESAT 2 21 Dec 13:00:56 13:05:01 76° 120° (ESE) 13:09:12 435.950
SPROUT 21 Dec 13:01:43 13:05:36 34° 289° (WNW) 13:09:29 437.525
AO-7 21 Dec 13:02:13 13:05:33 13° 46° (NE) 13:08:54 29.400- 29.500
ISS 21 Dec 13:02:36 13:05:52 62° 139° (SE) 13:09:08 145.825
JUGNU 21 Dec 13:08:30 13:09:39 11° 180° (S) 13:10:48 437.505
ITAMSAT 1 21 Dec 13:15:36 13:20:42 62° 73° (ENE) 13:25:49 435.822/435.867
Gurwin Techsat 1B 21 Dec 13:15:48 13:20:40 38° 69° (ENE) 13:25:32 435.225
AUBIESAT-1 21 Dec 13:19:47 13:21:54 14° 95° (E) 13:23:57 437.475
KKS-1 21 Dec 13:42:57 13:45:59 18° 93° (E) 13:49:00 437.445
M-CUBED/EXP-1 PRIME 21 Dec 13:44:45 13:48:33 30° 100° (E) 13:52:02 437.505
BEESAT 3 21 Dec 13:59:13 14:02:40 25° 311° (NW) 14:06:10 437.485
SWISSCUBE 21 Dec 14:04:31 14:09:07 50° 288° (WNW) 14:13:41 437.505
ITUPSAT 1 21 Dec 14:05:18 14:09:57 54° 287° (WNW) 14:14:34 437.325
AIST 2 21 Dec 14:10:14 14:14:18 45° 306° (NW) 14:18:26 435.215
HORYU 2 21 Dec 14:10:34 14:14:51 47° 72° (ENE) 14:19:10 437.375
SRMSAT 21 Dec 14:14:00 14:14:46 10° 177° (S) 14:15:33 437.500
BEESAT 21 Dec 14:29:41 14:33:51 31° 291° (WNW) 14:37:59 436.000
RS-15 21 Dec 14:31:52 14:40:35 26° 331° (NNW) 14:49:27 29.354- 29.394
ISS 21 Dec 14:40:07 14:42:41 21° 336° (NNW) 14:45:15 145.825
BEESAT 2 21 Dec 14:41:46 14:43:47 13° 318° (NW) 14:45:50 435.950
JAS-2 21 Dec 14:43:24 14:48:16 19° 61° (ENE) 14:52:52 435.910
PCSat 21 Dec 14:43:54 14:48:29 28° 309° (NW) 14:53:06 145.827
AO-7 21 Dec 14:48:30 14:56:36 59° 66° (ENE) 15:04:45 29.400- 29.500
AUBIESAT-1 21 Dec 14:53:06 14:57:13 46° 293° (WNW) 15:00:59 437.475
Gurwin Techsat 1B 21 Dec 14:56:20 15:00:41 26° 265° (W) 15:05:04 435.225
ITAMSAT 1 21 Dec 14:57:43 15:00:35 15° 269° (W) 15:03:27 435.822/435.867
AIST 1 21 Dec 15:07:49 15:09:37 12° 85° (E) 15:11:25
STARS 21 Dec 15:12:41 15:17:06 70° 285° (WNW) 15:21:32 437.465
KKS-1 21 Dec 15:18:34 15:22:46 40° 289° (WNW) 15:26:57 437.445
M-CUBED/EXP-1 PRIME 21 Dec 15:20:00 15:23:22 22° 299° (WNW) 15:26:31 437.505
HORYU 2 21 Dec 15:49:09 15:51:45 15° 268° (W) 15:54:23 437.375
GONETS M04 21 Dec 15:59:43 16:08:06 47° 75° (ENE) 16:16:22
ISS 21 Dec 16:19:44 16:20:16 10° 357° (N) 16:20:48 145.825
Cubesat XI-IV 21 Dec 16:19:50 16:23:30 19° 63° (ENE) 16:27:09 437.490
JAS-2 21 Dec 16:24:53 16:32:36 85° 256° (WSW) 16:39:38 435.910
MOZHAYETS 4 21 Dec 16:34:29 16:38:51 40° 98° (E) 16:43:09
AIST 1 21 Dec 16:42:30 16:46:46 51° 280° (W) 16:51:02
AO-7 21 Dec 16:42:44 16:49:44 30° 264° (W) 16:56:49 29.400- 29.500
CUTE-I 21 Dec 16:51:25 16:56:13 36° 69° (ENE) 17:01:02 437.470
RS-15 21 Dec 16:51:29 16:58:31 18° 7° (N) 17:05:41 29.354- 29.394
ISS 21 Dec 17:56:01 17:57:59 15° 17° (NNE) 17:59:56 145.825
GONETS M04 21 Dec 17:56:56 18:04:39 37° 275° (W) 18:12:18
Cubesat XI-IV 21 Dec 17:57:55 18:03:08 55° 259° (W) 18:08:22 437.490
CUBESAT XI-V 21 Dec 18:00:51 18:04:33 24° 94° (E) 18:08:13 437.345
MOZHAYETS 4 21 Dec 18:12:28 18:15:45 20° 294° (WNW) 18:19:02
JAS-2 21 Dec 18:14:19 18:18:14 15° 271° (W) 18:22:02 435.910
MaSat-1 21 Dec 18:22:32 18:24:47 33° 248° (WSW) 18:27:09 437.345
CUSAT 1 21 Dec 18:29:25 18:34:00 16° 63° (ENE) 18:38:47 437.405
CUTE-I 21 Dec 18:31:49 18:36:18 27° 264° (W) 18:40:48 437.470
PRISM 21 Dec 18:32:30 18:36:39 72° 285° (WNW) 18:40:44 437.425
STRAND 1 21 Dec 18:35:34 18:40:28 45° 99° (E) 18:45:19 437.568
